Tracking 28790 objects as of 19-Apr-2024
HD Live streaming from Space Station
objects crossing your sky now

DELTA 1 DEB

Track DELTA 1 DEB now!
10-day predictions


NORAD ID: 7136
Int'l Code: 1973-086DA
Perigee: 1,420.1 km
Apogee: 1,494.2 km
Inclination: 101.5 °
Period: 114.9 minutes
Semi major axis: 7828 km
RCS: 0.0415 m2 (small)
Launch date: November 6, 1973
Source: United States (US)
Launch site: AIR FORCE WESTERN TEST RANGE (AFWTR)

Note: This is SATELLITE DEBRIS
Your satellite tracking list
Your tracking list is empty




NASA's NSSDC Master Catalog

Two Line Element Set (TLE):
1 07136U 73086DA  24109.91804118  .00000565  00000-0  38039-2 0  9990
2 07136 101.5212  97.2192 0047332 179.0939 208.6831 12.53464922302582
Source of the keplerian elements: AFSPC